• In Uzbekistan
  • List of Countries
  • For 7 days
  • Water Temperature
  • Satellite Maps
  • Weather Map
  • Weather Widgets
  • user-avatar
    Login

    Hourly Weather Nicolas Ruiz

    Today, 19 February, Monday

    Time Temperature Precipitation Wind Pressure Humidity
    00:00 +18°C° 0 mm 1 mps 669 mmHg 76%
    01:00 +18°C° 0 mm 1 mps 669 mmHg 77%
    02:00 +18°C° 0 mm 1 mps 669 mmHg 78%
    03:00 +16°C° 0 mm 1 mps 668 mmHg 78%
    04:00 +16°C° 0 mm 1 mps 668 mmHg 78%
    05:00 +16°C° 0 mm 1 mps 668 mmHg 78%
    06:00 +15°C° 0 mm 1 mps 668 mmHg 78%
    07:00 +19°C° 0 mm 1 mps 669 mmHg 70%
    08:00 +21°C° 0 mm 1 mps 670 mmHg 62%
    09:00 +23°C° 0 mm 1 mps 671 mmHg 53%
    10:00 +26°C° 0 mm 1 mps 671 mmHg 47%
    11:00 +28°C° 0 mm 1 mps 671 mmHg 41%
    12:00 +30°C° 0 mm 1 mps 672 mmHg 35%
    13:00 +30°C° 0 mm 1 mps 671 mmHg 36%
    14:00 +30°C° 0 mm 1 mps 670 mmHg 37%
    15:00 +29°C° 0 mm 1 mps 669 mmHg 39%
    16:00 +27°C° 0 mm 1 mps 669 mmHg 45%
    17:00 +26°C° 0 mm 1 mps 669 mmHg 51%
    18:00 +24°C° 0 mm 1 mps 668 mmHg 57%
    19:00 +23°C° 0 mm 1 mps 669 mmHg 62%
    20:00 +22°C° 0 mm 1 mps 669 mmHg 66%
    21:00 +20°C° 0 mm 1 mps 669 mmHg 71%
    22:00 +20°C° 0.1 mm 1 mps 669 mmHg 73%
    23:00 +18°C° 0.1 mm 0 mps 669 mmHg 75%

    Tomorrow, 20 February, Tuesday

    Time Temperature Precipitation Wind Pressure Humidity
    00:00 +17°C° 0.1 mm 0 mps 669 mmHg 77%
    01:00 +17°C° 0.1 mm 0 mps 669 mmHg 79%
    02:00 +17°C° 0.1 mm 0 mps 669 mmHg 81%
    03:00 +16°C° 0.1 mm 0 mps 668 mmHg 83%
    04:00 +16°C° 0 mm 0 mps 668 mmHg 83%
    05:00 +18°C° 0 mm 1 mps 668 mmHg 83%
    06:00 +18°C° 0 mm 1 mps 668 mmHg 84%
    07:00 +20°C° 0 mm 1 mps 669 mmHg 74%
    08:00 +22°C° 0 mm 1 mps 670 mmHg 65%
    09:00 +24°C° 0 mm 1 mps 671 mmHg 55%
    10:00 +26°C° 0 mm 1 mps 671 mmHg 50%
    11:00 +28°C° 0 mm 1 mps 672 mmHg 46%
    12:00 +30°C° 0 mm 1 mps 672 mmHg 41%
    13:00 +29°C° 0.1 mm 1 mps 671 mmHg 43%
    14:00 +29°C° 0.1 mm 1 mps 670 mmHg 45%
    15:00 +28°C° 0.1 mm 1 mps 670 mmHg 47%
    16:00 +27°C° 0.1 mm 1 mps 669 mmHg 52%
    17:00 +25°C° 0.1 mm 1 mps 669 mmHg 57%
    18:00 +22°C° 0.1 mm 0 mps 669 mmHg 62%
    19:00 +23°C° 0 mm 1 mps 670 mmHg 64%
    20:00 +22°C° 0 mm 1 mps 670 mmHg 66%
    21:00 +21°C° 0 mm 1 mps 670 mmHg 69%
    22:00 +21°C° 0 mm 1 mps 670 mmHg 71%
    23:00 +18°C° 0 mm 0 mps 670 mmHg 73%

    Day after tomorrow, 21 February, Wednesday

    Time Temperature Precipitation Wind Pressure Humidity
    00:00 +18°C° 0 mm 0 mps 670 mmHg 74%
    01:00 +17°C° 0 mm 0 mps 670 mmHg 76%
    02:00 +17°C° 0 mm 0 mps 669 mmHg 77%
    03:00 +18°C° 0 mm 1 mps 669 mmHg 78%
    04:00 +18°C° 0 mm 1 mps 669 mmHg 79%
    05:00 +18°C° 0 mm 1 mps 669 mmHg 79%
    06:00 +18°C° 0 mm 1 mps 669 mmHg 80%
    07:00 +20°C° 0 mm 1 mps 670 mmHg 72%
    08:00 +23°C° 0 mm 1 mps 671 mmHg 64%
    09:00 +25°C° 0 mm 1 mps 672 mmHg 56%
    10:00 +27°C° 0 mm 1 mps 673 mmHg 50%
    11:00 +29°C° 0 mm 1 mps 673 mmHg 43%
    12:00 +31°C° 0 mm 1 mps 673 mmHg 37%
    13:00 +31°C° 0 mm 1 mps 672 mmHg 38%
    14:00 +30°C° 0 mm 1 mps 671 mmHg 38%
    15:00 +30°C° 0 mm 1 mps 671 mmHg 39%
    16:00 +28°C° 0 mm 1 mps 670 mmHg 44%
    17:00 +26°C° 0 mm 1 mps 670 mmHg 49%
    18:00 +25°C° 0 mm 1 mps 670 mmHg 55%
    19:00 +23°C° 0 mm 1 mps 670 mmHg 59%
    20:00 +22°C° 0 mm 1 mps 671 mmHg 64%
    21:00 +21°C° 0 mm 1 mps 671 mmHg 68%
    22:00 +20°C° 0 mm 1 mps 671 mmHg 70%
    23:00 +20°C° 0 mm 1 mps 671 mmHg 71%

    22 February, Thursday

    Time Temperature Precipitation Wind Pressure Humidity
    00:00 +19°C° 0 mm 1 mps 671 mmHg 73%
    01:00 +19°C° 0 mm 1 mps 670 mmHg 74%
    02:00 +19°C° 0 mm 1 mps 670 mmHg 75%
    03:00 +18°C° 0 mm 1 mps 669 mmHg 77%
    04:00 +18°C° 0 mm 1 mps 669 mmHg 77%
    05:00 +18°C° 0 mm 1 mps 670 mmHg 78%
    06:00 +16°C° 0 mm 1 mps 670 mmHg 79%
    07:00 +20°C° 0 mm 1 mps 671 mmHg 70%
    08:00 +22°C° 0 mm 1 mps 672 mmHg 62%
    09:00 +25°C° 0 mm 1 mps 673 mmHg 54%
    10:00 +27°C° 0 mm 1 mps 673 mmHg 48%
    11:00 +29°C° 0 mm 1 mps 673 mmHg 41%
    12:00 +31°C° 0 mm 2 mps 673 mmHg 35%
    13:00 +31°C° 0 mm 1 mps 672 mmHg 35%
    14:00 +31°C° 0 mm 1 mps 672 mmHg 34%
    15:00 +31°C° 0 mm 1 mps 671 mmHg 33%
    16:00 +29°C° 0 mm 1 mps 671 mmHg 40%
    17:00 +27°C° 0 mm 2 mps 671 mmHg 46%
    18:00 +25°C° 0 mm 2 mps 670 mmHg 53%
    19:00 +23°C° 0 mm 2 mps 670 mmHg 59%
    20:00 +21°C° 0 mm 2 mps 671 mmHg 64%
    21:00 +20°C° 0 mm 1 mps 671 mmHg 70%
    22:00 +20°C° 0 mm 1 mps 671 mmHg 71%
    23:00 +19°C° 0 mm 1 mps 671 mmHg 71%

    23 February, Friday

    Time Temperature Precipitation Wind Pressure Humidity
    00:00 +19°C° 0 mm 1 mps 671 mmHg 72%
    01:00 +18°C° 0 mm 1 mps 670 mmHg 74%
    02:00 +18°C° 0 mm 1 mps 670 mmHg 75%
    03:00 +18°C° 0 mm 1 mps 669 mmHg 77%
    04:00 +16°C° 0 mm 1 mps 669 mmHg 77%
    05:00 +16°C° 0 mm 1 mps 670 mmHg 77%
    06:00 +16°C° 0 mm 1 mps 670 mmHg 77%
    07:00 +19°C° 0 mm 1 mps 671 mmHg 69%
    08:00 +22°C° 0 mm 1 mps 672 mmHg 61%
    09:00 +24°C° 0 mm 1 mps 672 mmHg 53%
    10:00 +26°C° 0 mm 1 mps 673 mmHg 47%
    11:00 +29°C° 0 mm 1 mps 673 mmHg 41%
    12:00 +31°C° 0 mm 1 mps 673 mmHg 34%
    13:00 +31°C° 0 mm 1 mps 672 mmHg 35%
    14:00 +30°C° 0 mm 1 mps 671 mmHg 37%
    15:00 +30°C° 0 mm 1 mps 670 mmHg 38%
    16:00 +28°C° 0 mm 1 mps 670 mmHg 43%
    17:00 +27°C° 0 mm 1 mps 670 mmHg 49%
    18:00 +25°C° 0 mm 1 mps 670 mmHg 55%
    19:00 +23°C° 0 mm 1 mps 670 mmHg 60%
    20:00 +22°C° 0 mm 1 mps 670 mmHg 66%
    21:00 +21°C° 0 mm 1 mps 670 mmHg 72%
    22:00 +20°C° 0 mm 1 mps 670 mmHg 73%
    23:00 +19°C° 0 mm 1 mps 670 mmHg 74%

    24 February, Saturday

    Time Temperature Precipitation Wind Pressure Humidity
    00:00 +19°C° 0 mm 1 mps 670 mmHg 75%
    01:00 +18°C° 0 mm 1 mps 669 mmHg 75%
    02:00 +18°C° 0 mm 1 mps 669 mmHg 74%
    03:00 +18°C° 0 mm 1 mps 668 mmHg 74%
    04:00 +16°C° 0 mm 1 mps 668 mmHg 74%
    05:00 +16°C° 0 mm 1 mps 668 mmHg 73%
    06:00 +16°C° 0 mm 1 mps 668 mmHg 73%
    07:00 +20°C° 0 mm 1 mps 669 mmHg 65%
    08:00 +22°C° 0 mm 1 mps 670 mmHg 57%
    09:00 +25°C° 0 mm 1 mps 671 mmHg 48%
    10:00 +27°C° 0 mm 1 mps 671 mmHg 43%
    11:00 +29°C° 0 mm 1 mps 671 mmHg 38%
    12:00 +32°C° 0 mm 1 mps 671 mmHg 32%
    13:00 +31°C° 0 mm 1 mps 671 mmHg 33%
    14:00 +31°C° 0 mm 1 mps 670 mmHg 34%
    15:00 +31°C° 0 mm 1 mps 669 mmHg 35%
    16:00 +29°C° 0 mm 1 mps 669 mmHg 41%
    17:00 +27°C° 0 mm 1 mps 669 mmHg 48%
    18:00 +25°C° 0 mm 1 mps 668 mmHg 55%
    19:00 +24°C° 0.1 mm 1 mps 669 mmHg 61%
    20:00 +22°C° 0.1 mm 1 mps 669 mmHg 67%
    21:00 +21°C° 0.1 mm 1 mps 669 mmHg 73%
    22:00 +19°C° 0 mm 0 mps 669 mmHg 75%
    23:00 +18°C° 0 mm 0 mps 669 mmHg 78%
    Show more